Location: Christianberg
(48.9086°N, 14.0209°E)
Time: 18:53:12
(UTC+00:00)

SL-4 R/B - Pass Details

Date: 25 October 2021
Orbit: 427 x 661 km, 51.6° (Epoch: 02 December)

Event Time Altitude Azimuth Distance (km) Brightness Sun altitude
Exits shadow 02:44:22 28° 116° (ESE) 1,086 3.8 -29.2°
Drops below altitude 10° 02:46:23 10° 115° (ESE) 1,841 5.3 -28.9°
Sets 02:48:32 0° 115° (ESE) 2,692 6.2 -28.6°
